Flag for Germany Weather past 2 weeks in Oldenburg, Lower Saxony, Germany

Now
68 °F

Thundershowers. Broken clouds.


Feels Like: 68 °F
Forecast: 63 / 78 °F
Wind: 7 mph from Southeast

Location: Bremen Airport

Current Time: Jul 25, 2014 at 9:23:09 PM

Latest Report: Jul 25, 2014 at 8:50 PM


Visibility: 5 mi

Pressure: 29.95 "Hg

Humidity: 88%

Dew point: 64 °F

Location of OldenburgLocation

Historic Weather in Oldenburg — Graph

°F

Oldenburg temperature yesterday

Maximum temperature yesterday: 77 °F (at 4:50 PM)
Minimum temperature yesterday: 61 °F (at 4:20 AM)
Average temperature yesterday: 68 °F

Past Weeks' High & Low Weather Summary

 TemperatureHumidityPressure
High90 °F (Jul 19, 1:50 PM)100% (Jul 13, 9:20 PM)30.18 "Hg (Jul 13, 9:20 PM)
Low54 °F (Jul 17, 4:50 AM)27% (Jul 19, 4:20 PM)29.68 "Hg (Jul 13, 2:20 PM)
Average70 °F69%29.97 "Hg
* Reported Jul 10 7:20 PM — Jul 25 7:50 PM, Oldenburg, Weather by CustomWeather, © 2014

Note: Actual official high and low records may vary slightly from our data, if they occured in-between our weather recording intervals... More about our weather records

Advertising

Oldenburg weather history for previous 24 hours

 ConditionsComfort  
Time TempWeatherWind HumidityBarometerVisibility
7:50 PM
Jul 25
70 °FScattered showers. Partly sunny.3 mph88%29.95 "HgN/A
7:20 PM70 °FBroken clouds.5 mph88%29.92 "HgN/A
6:50 PM72 °FSunny.3 mph78%29.95 "Hg10 mi
6:20 PM72 °FBroken clouds.3 mph78%29.95 "HgN/A
5:50 PM72 °FBroken clouds.5 mph78%29.95 "HgN/A
5:20 PM72 °FBroken clouds.5 mph78%29.95 "HgN/A
4:50 PM72 °FBroken clouds.5 mph78%29.95 "HgN/A
4:20 PM72 °FBroken clouds.6 mph78%29.95 "HgN/A
3:50 PM72 °FBroken clouds.7 mph78%29.95 "HgN/A
3:20 PM70 °FPartly sunny.8 mph83%29.98 "HgN/A
2:20 PM70 °FPartly sunny.9 mph83%29.98 "HgN/A
1:50 PM72 °FPartly sunny.10 mph83%29.98 "HgN/A
1:20 PM70 °FLight rain. Partly sunny.7 mph83%29.98 "HgN/A
12:50 PM68 °FLight rain. Partly sunny.6 mph88%29.98 "HgN/A
12:20 PM68 °FLight rain. Partly sunny.7 mph88%29.98 "HgN/A
11:50 AM66 °FLight rain. Partly sunny.7 mph94%29.98 "HgN/A
11:20 AM66 °FPartly sunny.10 mph88%29.98 "HgN/A
10:50 AM64 °FLight rain. Partly sunny.7 mph94%29.98 "HgN/A
10:20 AM64 °FLight rain. Partly sunny.8 mph94%30.01 "HgN/A
9:50 AM64 °FLight rain. More clouds than sun.3 mph88%30.01 "HgN/A
9:20 AM64 °FLight rain. Overcast.5 mph88%30.01 "HgN/A
8:50 AM63 °FLight rain. Overcast.6 mph94%30.01 "HgN/A
8:20 AM63 °FRain. More clouds than sun.6 mph94%30.01 "Hg5 mi
7:50 AM63 °FLight rain. More clouds than sun.5 mph88%30.01 "HgN/A
7:20 AM63 °FLight rain. Overcast.5 mph88%30.01 "HgN/A
6:50 AM63 °FLight rain. Overcast.5 mph88%30.01 "HgN/A
6:20 AM63 °FLight rain. Overcast.5 mph88%30.01 "HgN/A
5:50 AM63 °FLight rain. Overcast.3 mph88%30.04 "HgN/A
5:20 AM63 °FLight rain. Overcast.5 mph88%30.04 "HgN/A
4:50 AM63 °FOvercast.7 mph88%30.01 "HgN/A
4:20 AM63 °FLight rain. Overcast.7 mph88%30.01 "HgN/A
3:50 AM63 °FRain. Overcast.8 mph88%30.01 "HgN/A
3:20 AM63 °FRain. Overcast.3 mph88%30.04 "HgN/A
2:50 AM63 °FLight rain. Overcast.3 mph88%30.04 "HgN/A
2:20 AM63 °FLight rain. Overcast.5 mph88%30.04 "HgN/A
1:50 AM63 °FLight rain. Overcast.6 mph88%30.04 "HgN/A
1:20 AM63 °FLight rain. Overcast.5 mph94%30.04 "HgN/A
12:50 AM63 °FLight rain. Overcast.3 mph94%30.04 "HgN/A
12:20 AM63 °FLight rain. Passing clouds.3 mph88%30.04 "HgN/A
11:50 PM
Jul 24
63 °FPassing clouds.2 mph88%30.04 "HgN/A
11:20 PM63 °FPassing clouds.2 mph88%30.07 "HgN/A
10:50 PM63 °FPassing clouds.5 mph88%30.04 "HgN/A
10:20 PM63 °FScattered showers. Broken clouds.6 mph88%30.07 "HgN/A
9:50 PM64 °FScattered showers. Broken clouds.10 mph83%30.07 "HgN/A
9:20 PM64 °FPartly sunny.1 mph88%30.04 "HgN/A
Weather by CustomWeather, © 2014

See weather overviewHow to use our weather pages